Погода в Сокологорном

Украина / Херсонская область     46°29′58″N   34°56′43″E
темп.,
°C
ветер,
м/с
пор.,
м/с
влажн.,
%
обл.,
%
осадки,
мм/ч
давл.,
гПа
погр.,
м
23 сентября, чт
чт2300:00+10зсз2364100 0.0 1014122
03:00+8зсз2274100 0.0 101421
06:00+7зсз2385100 0.0 101369
09:00+10сз2373100 0.0 1014384
12:00+12сз335698 0.2 10141172
15:00+14сз554990 0.3 10131593
18:00+12сз5658100 0.0 1014826
21:00+10сз4563100 0.0 1015544
24 сентября, пт
пт2400:00+10сз4774100 0.0 1015392
03:00+10зсз3671100 0.1 1015385
06:00+7зсз34855 0.0 101571
09:00+11зюз456015 0.0 1015534
12:00+15зюз684489 0.0 10131541
15:00+16юз81156100 0.0 10111347
18:00+13зюз61283100 1.6 1010935
21:00+13з61282100 6.5 1010576
25 сентября, сб
сб2500:00+12зюз4118111 0.1 1009308
03:00+11зсз488781 0.1 1009195
06:00+9зсз511840 0.0 1011278
09:00+12зсз6106810 0.0 1012685
12:00+16зсз8104875 0.0 10131799
15:00+16зсз81145100 0.0 10152148
18:00+15сз474942 0.0 1016291
21:00+13зюз34565 0.0 101850
26 сентября, вс
вс2600:00+14з4857100 0.0 1018283
03:00+15юз51355100 0.0 1018456
06:00+16зюз51262100 0.0 1018419
09:00+18з71260100 0.0 1018723
12:00+20з81250100 0.1 10181067
15:00+22зсз8124219 0.1 10171923
18:00+20сз51152100 0.0 1017725
21:00+16ссз38570 0.0 1017173
27 сентября, пн
пн2700:00+14ссв356772 0.0 1018200
03:00+12ссв34725 0.0 101870
06:00+10ссв35775 0.0 101992
09:00+13ссв45605 0.0 1019484
12:00+17св44425 0.0 10191376
15:00+19св33355 0.0 10181844
18:00+17всв234325 0.0 101893
21:00+13с12587 0.0 101938